EW2997 Weather Reports


time (UTC)temp
F
wind
direction
speed
knots
gust
knots
rain 1hr
in
rain 24hr
in
rain mn
in
humidity
%
barometer
mb
20260507065451 51 132 0.0 0.0 0.00 0.00 0.00 73 1015.2
20260507062446 51 24 0.0 0.0 0.00 0.00 0.00 76 1015.2
20260507055445 52 30 1.7 1.7 0.00 0.00 0.00 80 1015.2
20260507052441 52 53 3.5 3.5 0.00 0.00 0.00 79 1014.9
20260507045438 53 0 1.7 1.7 0.00 0.00 0.00 81 1014.9
20260507042435 53 18 1.7 1.7 0.00 0.00 0.00 81 1014.9
20260507035430 53 349 1.7 1.7 0.00 0.23 0.23 80 1015.6
20260507032425 54 10 1.7 1.7 0.00 0.23 0.23 78 1014.9
20260507025423 54 6 1.7 1.7 0.00 0.23 0.23 81 1015.2
20260507022423 54 9 1.7 1.7 0.00 0.23 0.23 79 1014.5
20260507015421 54 283 1.7 1.7 0.00 0.23 0.23 82 1014.9
20260507012419 55 10 2.6 2.6 0.00 0.23 0.23 83 1014.9
20260507005415 56 25 1.7 1.7 0.00 0.23 0.23 84 1014.9
20260507002410 56 347 1.7 1.7 0.00 0.23 0.23 83 1014.5
20260506235408 57 353 3.5 3.5 0.00 0.23 0.23 82 1013.9
20260506232406 58 354 3.5 3.5 0.00 0.23 0.23 81 1012.9
20260506225404 60 0 1.7 1.7 0.00 0.23 0.23 80 1012.9
20260506222401 60 337 2.6 2.6 0.00 0.23 0.23 80 1012.9
20260506215359 61 324 2.6 2.6 0.00 0.23 0.23 79 1012.5
20260506212358 62 328 4.3 4.3 0.00 0.23 0.23 81 1011.7
20260506205355 64 333 1.7 1.7 0.00 0.23 0.23 81 1011.4
20260506202353 64 323 1.7 1.7 0.00 0.23 0.23 88 1011.1
20260506195349 64 232 1.7 1.7 0.00 0.23 0.23 89 1010.7
20260506192347 64 234 0.9 0.9 0.00 0.23 0.23 91 1010.7
20260506185345 62 168 1.7 1.7 0.00 0.23 0.23 94 1011.1
20260506182344 62 192 1.7 1.7 0.00 0.23 0.23 94 1011.4
20260506175344 61 210 3.5 4.3 0.00 0.23 0.23 95 1011.4
20260506172343 61 222 1.7 1.7 0.00 0.23 0.23 93 1011.1
20260506165340 61 204 2.6 2.6 0.00 0.23 0.23 93 1011.1
20260506162337 61 234 2.6 2.6 0.00 0.23 0.23 91 1011.4
20260506155332 60 228 1.7 1.7 0.00 0.23 0.23 91 1011.1
20260506152328 61 324 3.5 4.3 0.00 0.23 0.23 91 1010.7
20260506145328 60 253 0.0 0.0 0.03 0.23 0.23 94 1011.1
20260506142324 58 23 1.7 1.7 0.02 0.22 0.22 95 1010.7
20260506135320 58 213 3.5 3.5 0.07 0.19 0.19 94 1011.4
20260506132318 58 204 3.5 3.5 0.01 0.13 0.13 93 1011.1
20260506125314 58 180 0.0 0.0 0.05 0.10 0.10 92 1011.4
20260506122310 59 237 3.5 3.5 0.02 0.07 0.07 89 1011.1
20260506115307 59 168 0.9 0.9 0.05 0.05 0.05 89 1011.4
20260506112305 59 114 0.0 0.0 0.04 0.04 0.04 87 1011.7
20260506105305 63 192 1.7 1.7 0.00 0.00 0.00 70 1011.1
20260506102259 66 260 2.6 2.6 0.00 0.00 0.00 58 1010.4
20260506095255 66 210 4.3 5.2 0.00 0.00 0.00 56 1009.7
20260506092251 66 182 2.6 2.6 0.00 0.00 0.00 55 1010.4
20260506085251 67 221 2.6 2.6 0.00 0.00 0.00 53 1010.4
20260506082248 67 150 2.6 2.6 0.00 0.00 0.00 52 1010.7
20260506072240 68 200 1.7 1.7 0.00 0.00 0.00 51 1010.7